15 daagse weersverwachting Narvik (NO)

  • Overzicht
  • Per uur
  • 15 dagen
  • Extra
  • Vergelijk
  • Kaarten
  • Dagkaart
  • Meer »
  • Info
  • Statistieken
  • Directe link
    Temp 6h Neerslag Wind  
 04:51     20:56    Daglengte: 16:05 Vandaag
02:00
10°
 
1
08:00
12°
0.9 mm
2
14:00
13°
9.8 mm
2
20:00
12°
18.6 mm
4
 04:55     20:52    Daglengte: 15:57 Morgen
02:00
11°
24.7 mm
6
08:00
11°
28.6 mm
4
14:00
12°
25.1 mm
5
20:00
12°
 
1
 04:59     20:47    Daglengte: 15:48 Dinsdag 27 Aug
02:00
12°
13.6 mm
2
08:00
15°
 
1
14:00
17°
 
2
20:00
16°
 
1
Locatie info
Region: Nordland
Latitude: 68.4395°N
Longitude: 17.4301°E
100 masl
Postcode: 8514
Temp/Neerslag /Baro Onweer/Dauwpunt
    Temp Baro 1h Neerslag Dauwpunt Wind UV Bewolking  
 04:51     20:56    Daglengte: 16:05 Vandaag
02:00
10°
1019.4 hPa   5.5°
1
Windvlaag: 2.1 km/h
90%
03:00
11°
1018.7 hPa   5.1°
1
Windvlaag: 2.1 km/h
91%
04:00
11°
1018.2 hPa
29%
6.1°
1
Windvlaag: 1.9 km/h
87%
05:00
11°
1017.5 hPa
82%
6.4°
1
Windvlaag: 1.9 km/h
89%
06:00
11°
1016.7 hPa 0.4 mm
82%
6.7°
1
Windvlaag: 2 km/h
83%
07:00
12°
1015.7 hPa 0.4 mm
82%
7.5°
2
Windvlaag: 2.5 km/h
90%
08:00
12°
1015.0 hPa
82%
7.9°
2
Windvlaag: 2.7 km/h
91%
09:00
12°
1014.4 hPa 1.1 mm
82%
9.8°
1
Windvlaag: 2.7 km/h
90%
10:00
12°
1013.8 hPa 1.4 mm
82%
10.6°
2
Windvlaag: 2.7 km/h
91%
11:00
12°
1013.3 hPa 1.8 mm
82%
10.7°
2
Windvlaag: 3.7 km/h
91%
12:00
13°
1013.1 hPa 2.0 mm
82%
10.9°
2
Windvlaag: 3.9 km/h
89%
13:00
13°
1012.5 hPa 1.4 mm
82%
11.2°
2
Windvlaag: 2.3 km/h
91%
14:00
13°
1012.0 hPa 2.0 mm
82%
11.5°
2
Windvlaag: 3.1 km/h
89%
15:00
13°
1011.2 hPa 2.3 mm
82%
11.4°
2
Windvlaag: 4.4 km/h
89%
16:00
13°
1010.4 hPa 2.1 mm
82%
10.6°
2
Windvlaag: 3.6 km/h
91%
17:00
12°
1009.8 hPa 2.9 mm
82%
10.3°
1
Windvlaag: 3.8 km/h
91%
18:00
12°
1009.7 hPa 3.7 mm
82%
10.8°
2
Windvlaag: 3.3 km/h
90%
19:00
12°
1009.7 hPa 4.1 mm
82%
10.8°
5
Windvlaag: 7.5 km/h
89%
20:00
12°
1009.9 hPa 3.5 mm
82%
10.4°
4
Windvlaag: 7.4 km/h
85%
21:00
12°
1009.7 hPa 4.5 mm
80%
10.3°
4
Windvlaag: 5.6 km/h
71%
22:00
12°
1009.6 hPa 3.8 mm
81%
10.4°
3
Windvlaag: 5.4 km/h
89%
23:00
11°
1009.7 hPa 4.4 mm
82%
10.5°
4
Windvlaag: 6.7 km/h
91%
 04:55     20:52    Daglengte: 15:57 Morgen
00:00
12°
1009.8 hPa 3.9 mm
82%
10.7°
5
Windvlaag: 8.4 km/h
82%
01:00
11°
1010.4 hPa 4.0 mm
82%
11.1°
6
Windvlaag: 10.9 km/h
90%
02:00
11°
1011.0 hPa 4.1 mm
82%
10.4°
6
Windvlaag: 11 km/h
86%
03:00
11°
1011.6 hPa 3.7 mm
82%
10.6°
5
Windvlaag: 9.7 km/h
80%
04:00
11°
1012.1 hPa 3.7 mm
82%
10.8°
5
Windvlaag: 7.8 km/h
79%
05:00
11°
1012.5 hPa 5.6 mm
82%
10.9°
5
Windvlaag: 8.7 km/h
87%
06:00
11°
1013.2 hPa 4.4 mm
82%
10.9°
4
Windvlaag: 8.4 km/h
90%
07:00
11°
1013.9 hPa 6.3 mm
82%
11.1°
3
Windvlaag: 7.8 km/h
89%
08:00
11°
1014.4 hPa 4.9 mm
82%
10.7°
4
Windvlaag: 6.7 km/h
90%
09:00
11°
1015.0 hPa 4.8 mm
82%
11.0°
4
Windvlaag: 7.5 km/h
87%
10:00
12°
1015.8 hPa 4.5 mm
82%
11.1°
5
Windvlaag: 7.6 km/h
90%
11:00
12°
1016.7 hPa 4.9 mm
82%
11.0°
5
Windvlaag: 7.7 km/h
90%
12:00
12°
1017.4 hPa 4.6 mm
82%
11.0°
5
Windvlaag: 8 km/h
90%
13:00
12°
1018.2 hPa 6.3 mm
82%
10.8°
5
Windvlaag: 8 km/h
87%
14:00
12°
1018.8 hPa
81%
10.7°
5
Windvlaag: 8.1 km/h
84%
15:00
12°
1019.2 hPa
32%
10.3°
4
Windvlaag: 7.9 km/h
80%
16:00
12°
1019.4 hPa
17%
10.5°
3
Windvlaag: 5.6 km/h
73%
17:00
12°
1019.6 hPa
17%
10.2°
2
Windvlaag: 5.9 km/h
79%
18:00
12°
1019.8 hPa
16%
10.1°
1
Windvlaag: 5.4 km/h
85%
19:00
12°
1019.6 hPa
22%
10.0°
2
Windvlaag: 3.9 km/h
84%
20:00
12°
1019.4 hPa
82%
9.4°
1
Windvlaag: 2.8 km/h
86%
21:00
11°
1019.3 hPa
82%
9.1°
1
Windvlaag: 1.6 km/h
85%
22:00
11°
1019.1 hPa 6.8 mm
82%
9.5°
2
Windvlaag: 2.5 km/h
86%
23:00
11°
1019.4 hPa 6.9 mm
100%
9.6°
1
Windvlaag: 2.2 km/h
96%
 04:59     20:47    Daglengte: 15:48 Dinsdag 27 Aug
00:00
11°
1019.1 hPa
100%
9.3°
1
Windvlaag: 2.3 km/h
89%
01:00
11°
1019.1 hPa
27%
9.6°
2
Windvlaag: 3 km/h
85%
02:00
12°
1019.1 hPa
21%
9.9°
2
Windvlaag: 3.6 km/h
95%
03:00
13°
1018.9 hPa
21%
9.7°
2
Windvlaag: 4.3 km/h
69%
04:00
13°
1018.5 hPa
22%
9.6°
2
Windvlaag: 4.3 km/h
75%
05:00
13°
1018.6 hPa
21%
9.6°
2
Windvlaag: 4.8 km/h
59%
06:00
14°
1018.3 hPa
21%
10.4°
2
Windvlaag: 5 km/h
86%
07:00
15°
1018.3 hPa
29%
11.4°
2
Windvlaag: 4.8 km/h
65%
08:00
15°
1018.3 hPa
29%
11.9°
1
Windvlaag: 4 km/h
70%
09:00
16°
1018.3 hPa
23%
13.0°
1
Windvlaag: 2.8 km/h
51%
10:00
17°
1018.3 hPa
21%
14.6°
1
Windvlaag: 3 km/h
54%
11:00
17°
1018.5 hPa
21%
13.9°
2
Windvlaag: 3.4 km/h
69%
12:00
16°
1018.9 hPa
21%
14.1°
3
Windvlaag: 6 km/h
58%
13:00
16°
1019.2 hPa
21%
14.5°
3
Windvlaag: 6 km/h
60%
14:00
17°
1019.4 hPa
21%
14.7°
2
Windvlaag: 4.9 km/h
59%
15:00
17°
1019.4 hPa
21%
14.9°
2
Windvlaag: 9.6 km/h
56%
16:00
17°
1019.4 hPa
21%
15.0°
2
Windvlaag: 10 km/h
50%
17:00
17°
1019.4 hPa
21%
14.9°
2
Windvlaag: 9.7 km/h
69%
18:00
17°
1019.4 hPa
21%
14.8°
1
Windvlaag: 7.3 km/h
65%
19:00
17°
1019.6 hPa
21%
14.8°
1
Windvlaag: 2.5 km/h
38%
20:00
16°
1019.6 hPa
22%
14.5°
1
Windvlaag: 0.5 km/h
46%
21:00
16°
1019.5 hPa
22%
14.0°
1
Windvlaag: 0.7 km/h
66%
22:00
15°
1019.4 hPa
25%
13.6°
1
Windvlaag: 0.8 km/h
57%
23:00
15°
1019.3 hPa
21%
13.1°
1
Windvlaag: 1.8 km/h
58%
 05:03     20:43    Daglengte: 15:40 Woensdag 28 Aug
00:00
14°
1019.1 hPa
21%
12.8°
1
Windvlaag: 3.1 km/h
58%
01:00
14°
1018.9 hPa
25%
12.5°
2
Windvlaag: 3.7 km/h
58%
Temp/Neerslag /Baro Onweer/Dauwpunt
    Temp Baro Neerslag Dauwpunt Wind Bewolking  
 04:51     20:56    Daglengte: 16:05 Vandaag
02:00
10°
1019.4 hPa   5.5°
1
90%
05:00
11°
1017.5 hPa   6.4°
1
89%
08:00
12°
1015.0 hPa 0.9 mm 7.9°
2
91%
11:00
12°
1013.3 hPa 4.3 mm 10.7°
2
91%
14:00
13°
1012.0 hPa 5.4 mm 11.5°
2
89%
17:00
12°
1009.8 hPa 7.3 mm 10.3°
1
91%
20:00
12°
1009.9 hPa 11.3 mm 10.4°
4
85%
23:00
11°
1009.7 hPa 12.6 mm 10.5°
4
91%
 04:55     20:52    Daglengte: 15:57 Morgen
02:00
11°
1011.0 hPa 12.1 mm 10.4°
6
86%
05:00
11°
1012.5 hPa 13.0 mm 10.9°
5
87%
08:00
11°
1014.4 hPa 15.6 mm 10.7°
4
90%
11:00
12°
1016.7 hPa 14.1 mm 11.0°
5
90%
14:00
12°
1018.8 hPa 11.0 mm 10.7°
5
84%
17:00
12°
1019.6 hPa   10.2°
2
79%
20:00
12°
1019.4 hPa   9.4°
1
86%
23:00
11°
1019.4 hPa 13.6 mm 9.6°
1
96%
 04:59     20:47    Daglengte: 15:48 Dinsdag 27 Aug
02:00
12°
1019.1 hPa   9.9°
2
95%
05:00
13°
1018.6 hPa   9.6°
2
59%
08:00
15°
1018.3 hPa   11.9°
1
70%
11:00
17°
1018.5 hPa   13.9°
2
69%
14:00
17°
1019.4 hPa   14.7°
2
59%
17:00
17°
1019.4 hPa   14.9°
2
69%
20:00
16°
1019.6 hPa   14.5°
1
46%
23:00
15°
1019.3 hPa   13.1°
1
58%
 05:03     20:43    Daglengte: 15:40 Woensdag 28 Aug
02:00
14°
1018.6 hPa   12.3°
2
69%
05:00
14°
1018.4 hPa 37.0 mm 12.5°
2
64%
08:00
15°
1017.9 hPa 37.0 mm 13.1°
3
62%
11:00
19°
1017.5 hPa 37.0 mm 13.8°
2
57%
14:00
22°
1017.1 hPa 37.0 mm 13.8°
2
52%
17:00
21°
1016.9 hPa 37.3 mm 14.0°
2
32%
20:00
19°
1016.6 hPa 37.7 mm 14.2°
1
12%
23:00
17°
1016.3 hPa 37.8 mm 13.0°
2
22%
 05:06     20:38    Daglengte: 15:32 Donderdag 29 Aug
02:00
14°
1015.9 hPa 37.8 mm 11.5°
3
33%
05:00
15°
1015.7 hPa 37.8 mm 12.5°
3
42%
08:00
16°
1015.5 hPa 37.8 mm 13.6°
3
52%
11:00
19°
1014.6 hPa 37.8 mm 14.3°
3
40%
14:00
22°
1013.7 hPa 37.8 mm 14.3°
3
28%
17:00
21°
1013.1 hPa 37.8 mm 14.4°
3
45%
20:00
19°
1012.6 hPa 37.8 mm 14.2°
2
62%
23:00
17°
1011.7 hPa 37.8 mm 13.2°
3
50%
 05:10     20:34    Daglengte: 15:24 Vrijdag 30 Aug
02:00
15°
1010.7 hPa 37.8 mm 12.2°
3
38%
05:00
15°
1010.7 hPa 37.9 mm 12.5°
3
50%
08:00
16°
1010.8 hPa 42.9 mm 12.8°
3
62%
11:00
15°
1010.7 hPa 45.0 mm 12.2°
3
76%
14:00
15°
1010.5 hPa 45.5 mm 11.8°
3
91%
17:00
14°
1010.5 hPa 45.6 mm 11.6°
2
91%
20:00
13°
1010.5 hPa 45.7 mm 11.4°
2
92%
23:00
12°
1010.9 hPa 48.6 mm 11.0°
2
92%
 05:14     20:29    Daglengte: 15:15 Zaterdag 31 Aug
02:00
12°
1011.4 hPa 49.3 mm 10.6°
3
91%
05:00
12°
1010.7 hPa 54.8 mm 10.3°
3
91%
08:00
11°
1010.0 hPa 56.0 mm 10.0°
3
91%
11:00
12°
1009.8 hPa 56.0 mm 10.5°
3
90%
14:00
13°
1009.6 hPa 56.1 mm 11.2°
4
89%
17:00
13°
1012.1 hPa 56.7 mm 11.0°
2
88%
20:00
13°
1014.7 hPa 56.8 mm 10.7°
1
87%
23:00
12°
1014.8 hPa   9.9°
2
85%
 05:18     20:25    Daglengte: 15:07 Zondag 01 Sep
02:00
11°
1014.9 hPa 113.7 mm 9.2°
2
83%
08:00
12°
1013.6 hPa 113.7 mm 9.4°
2
88%
14:00
15°
1012.8 hPa 113.8 mm 9.4°
3
84%
20:00
14°
1012.4 hPa 118.2 mm 10.6°
2
76%
 05:22     20:20    Daglengte: 14:58 Maandag 02 Sep
02:00
11°
1012.3 hPa 130.3 mm 8.9°
3
67%
08:00
11°
1011.8 hPa 131.0 mm 8.1°
2
88%
14:00
14°
1012.9 hPa 131.2 mm 8.6°
2
86%
20:00
13°
1013.5 hPa 131.3 mm 9.9°
1
85%
 05:25     20:16    Daglengte: 14:51 Dinsdag 03 Sep
02:00
10°
1013.5 hPa 131.5 mm 8.5°
2
75%
08:00
11°
1013.3 hPa 133.2 mm 8.4°
2
80%
14:00
Voelt als: 7.1°
1011.1 hPa 138.0 mm 5.6°
3
1%
20:00
11°
1013.2 hPa 1.8 mm 7.7°
1
64%
 05:29     20:12    Daglengte: 14:43 Woensdag 04 Sep
02:00
Voelt als: 8.1°
1013.5 hPa 1.7 mm 7.2°
1
58%
08:00
Voelt als: 8.5°
1013.8 hPa 1.7 mm 6.9°
1
64%
14:00
12°
1013.8 hPa 1.3 mm 6.6°
2
60%
20:00
1013.7 hPa 1.3 mm 6.2°
1
59%
 05:33     20:07    Daglengte: 14:34 Donderdag 05 Sep
02:00
Voelt als: 6.7°
1013.2 hPa 0.7 mm 5.3°
1
46%
08:00
Voelt als: 8.0°
1012.3 hPa 0.5 mm 5.7°
1
51%
14:00
12°
1011.3 hPa 0.7 mm 6.3°
1
57%
20:00
10°
1010.9 hPa 0.8 mm 6.6°
1
57%
 05:36     20:03    Daglengte: 14:27 Vrijdag 06 Sep
02:00
Voelt als: 7.2°
1011.3 hPa 1.1 mm 6.3°
2
52%
08:00
Voelt als: 8.3°
1010.8 hPa 1.3 mm 6.8°
2
52%
14:00
13°
1010.7 hPa 1.4 mm 7.0°
1
51%
20:00
1010.7 hPa 0.8 mm 6.6°
0
51%
 05:40     19:58    Daglengte: 14:18 Zaterdag 07 Sep
02:00
Voelt als: 6.7°
1010.8 hPa 0.6 mm 5.7°
1
53%
08:00
Voelt als: 7.0°
1009.9 hPa 0.3 mm 5.7°
2
56%
14:00
12°
1008.9 hPa 0.5 mm 6.2°
2
58%
20:00
Voelt als: 9.1°
1008.3 hPa 1.7 mm 6.6°
1
65%
 05:44     19:54    Daglengte: 14:10 Zondag 08 Sep
02:00
Voelt als: 6.6°
1008.7 hPa 2.0 mm 5.7°
1
62%
08:00
Voelt als: 7.2°
1008.6 hPa 1.7 mm 5.8°
1
59%
14:00
12°
1008.6 hPa 1.0 mm 5.8°
2
55%
20:00
1008.4 hPa 0.8 mm 5.9°
0
58%
  CAPE Lifted Index Hail Supercell Tornado SRH 3km CL BTM PRES CL TOP PRES Swiss DWD icon SMHI TS
 04:51     20:56    Daglengte: 16:05 Vandaag
02:00 0 J/kg 5.9 K 0 % 0 % 0 % 0 m²/s² 0 0 7.46 3
03:00 0 J/kg 5.5 K 0 % 0 % 0 % 0 m²/s² 0 0 5.74 3
04:00 0 J/kg 5.0 K 0 % 0 % 0 % 0 m²/s² 0 0 5.24 3
05:00 0 J/kg 3.8 K 0 % 0 % 0 % 0 m²/s² 0 0 4.01 61
06:00 0 J/kg 3.1 K 0 % 0 % 0 % 0 m²/s² 0 0 3.31 61
07:00 0 J/kg 2.3 K 0 % 0 % 0 % 0 m²/s² 0 0 2.51 61
08:00 0 J/kg 1.6 K 0 % 0 % 0 % 0 m²/s² 0 0 1.78 61
09:00 0 J/kg 1.0 K 0 % 0 % 0 % 0 m²/s² 0 0 1.42 61
10:00 21 J/kg 1.0 K 0 % 0 % 0 % 0 m²/s² 0 0 1.21 61
11:00 111 J/kg 1.6 K 0 % 0 % 0 % 0 m²/s² 0 0 2.05 61
12:00 32 J/kg 3.8 K 0 % 0 % 0 % 0 m²/s² 0 0 4.13 61
13:00 0 J/kg 3.7 K 0 % 0 % 0 % 0 m²/s² 0 0 3.82 61
14:00 1 J/kg 2.9 K 0 % 0 % 0 % 0 m²/s² 0 0 3.32 61
15:00 20 J/kg 2.4 K 0 % 0 % 0 % 0 m²/s² 0 0 2.7 61
16:00 17 J/kg 2.3 K 0 % 0 % 0 % 0 m²/s² 0 0 2.93 61
17:00 5 J/kg 1.2 K 0 % 0 % 0 % 0 m²/s² 0 0 1.38 61
18:00 8 J/kg -0.2 K 0 % 0 % 0 % 0 m²/s² 0 0 -0.2 61
19:00 117 J/kg 0.3 K 0 % 0 % 0 % 0 m²/s² 0 0 2.28 63
20:00 88 J/kg 0.8 K 0 % 0 % 0 % 0 m²/s² 0 0 3.56 55
21:00 29 J/kg 2.6 K 0 % 0 % 0 % 0 m²/s² 0 0 4.7 80
22:00 10 J/kg 1.3 K 0 % 0 % 0 % 0 m²/s² 0 0 3.16 61
23:00 8 J/kg 0.7 K 0 % 0 % 0 % 0 m²/s² 0 0 2.56 61
 04:55     20:52    Daglengte: 15:57 Morgen
00:00 68 J/kg 0.8 K 0 % 0 % 0 % 0 m²/s² 0 0 2.99 61
01:00 55 J/kg 1.3 K 0 % 0 % 0 % 0 m²/s² 0 0 3.16 61
02:00 39 J/kg 2.0 K 0 % 0 % 0 % 0 m²/s² 0 0 3.26 61
03:00 66 J/kg 2.5 K 0 % 0 % 0 % 0 m²/s² 0 0 3.22 80
04:00 68 J/kg 3.1 K 0 % 0 % 0 % 0 m²/s² 0 0 3.82 80
05:00 52 J/kg 3.4 K 0 % 0 % 0 % 0 m²/s² 0 0 4.3 80
06:00 69 J/kg 3.6 K 0 % 0 % 0 % 0 m²/s² 0 0 5.01 80
07:00 80 J/kg 3.7 K 0 % 0 % 0 % 0 m²/s² 0 0 5.38 80
08:00 73 J/kg 4.4 K 0 % 0 % 0 % 0 m²/s² 0 0 6.41 61
09:00 35 J/kg 5.2 K 0 % 0 % 0 % 0 m²/s² 0 0 6.94 61
10:00 62 J/kg 5.8 K 0 % 0 % 0 % 0 m²/s² 0 0 8.44 3
11:00 104 J/kg 6.0 K 0 % 0 % 0 % 0 m²/s² 0 0 8.94 80
12:00 85 J/kg 6.8 K 0 % 0 % 0 % 0 m²/s² 0 0 9.92 61
13:00 77 J/kg 7.4 K 0 % 0 % 0 % 0 m²/s² 0 0 10.28 3
14:00 63 J/kg 8.2 K 0 % 0 % 0 % 0 m²/s² 0 0 10.57 3
15:00 52 J/kg 8.7 K 0 % 0 % 0 % 0 m²/s² 0 0 10.98 3
16:00 18 J/kg 9.8 K 0 % 0 % 0 % 0 m²/s² 0 0 11.96 3
17:00 23 J/kg 11.0 K 0 % 0 % 0 % 0 m²/s² 0 0 14.06 3
18:00 15 J/kg 12.5 K 0 % 0 % 0 % 0 m²/s² 0 0 13.82 3
19:00 0 J/kg 13.3 K 0 % 0 % 0 % 0 m²/s² 0 0 14.32 3
20:00 0 J/kg 13.8 K 0 % 0 % 0 % 0 m²/s² 0 0 14.22 3
21:00 0 J/kg 13.4 K 0 % 0 % 0 % 0 m²/s² 0 0 13.52 61
22:00 0 J/kg 13.1 K 0 % 0 % 0 % 0 m²/s² 0 0 13.13 61
23:00 0 J/kg 9.8 K 0 % 0 % 0 % 0 m²/s² 0 0 9.89 61
 04:59     20:47    Daglengte: 15:48 Dinsdag 27 Aug
00:00 0 J/kg 8.5 K 0 % 0 % 0 % 0 m²/s² 0 0 8.8 3
01:00 0 J/kg 7.2 K 0 % 0 % 0 % 0 m²/s² 0 0 7.77 3
02:00 0 J/kg 7.6 K 0 % 0 % 0 % 0 m²/s² 0 0 9.61 3
03:00 0 J/kg 7.0 K 0 % 0 % 0 % 0 m²/s² 0 0 9.25 3
04:00 0 J/kg 5.5 K 0 % 0 % 0 % 0 m²/s² 0 0 7.84 3
05:00 0 J/kg 5.8 K 0 % 0 % 0 % 0 m²/s² 0 0 8.77 3
06:00 0 J/kg 4.7 K 0 % 0 % 0 % 0 m²/s² 0 0 9.32 3
07:00 0 J/kg 4.2 K 0 % 0 % 0 % 0 m²/s² 0 0 11.7 3
08:00 0 J/kg 3.8 K 0 % 0 % 0 % 0 m²/s² 0 0 13.31 2
09:00 0 J/kg 3.5 K 0 % 0 % 0 % 0 m²/s² 0 0 13.46 2
10:00 0 J/kg 3.7 K 0 % 0 % 0 % 0 m²/s² 0 0 9.61 3
11:00 0 J/kg 3.8 K 0 % 0 % 0 % 0 m²/s² 0 0 12.53 2
12:00 8 J/kg 3.9 K 0 % 0 % 0 % 0 m²/s² 0 0 7.59 3
13:00 3 J/kg 2.7 K 0 % 0 % 0 % 0 m²/s² 0 0 4.71 3
14:00 1 J/kg 1.8 K 0 % 0 % 0 % 0 m²/s² 0 0 3.63 3
15:00 0 J/kg 1.3 K 0 % 0 % 0 % 0 m²/s² 0 0 3.07 3
16:00 0 J/kg 1.8 K 0 % 0 % 0 % 0 m²/s² 0 0 3.39 3
17:00 0 J/kg 2.0 K 0 % 0 % 0 % 0 m²/s² 0 0 3.41 2
18:00 0 J/kg 1.8 K 0 % 0 % 0 % 0 m²/s² 0 0 3.21 3
19:00 0 J/kg 1.8 K 0 % 0 % 0 % 0 m²/s² 0 0 2.94 2
20:00 0 J/kg 2.0 K 0 % 0 % 0 % 0 m²/s² 0 0 3.14 3
21:00 0 J/kg 1.9 K 0 % 0 % 0 % 0 m²/s² 0 0 2.71 3
22:00 0 J/kg 1.9 K 0 % 0 % 0 % 0 m²/s² 0 0 2.59 3
23:00 0 J/kg 1.9 K 0 % 0 % 0 % 0 m²/s² 0 0 2.8 3
 05:03     20:43    Daglengte: 15:40 Woensdag 28 Aug
00:00 0 J/kg 1.7 K 0 % 0 % 0 % 0 m²/s² 0 0 2.9 3
01:00 0 J/kg 1.1 K 0 % 0 % 0 % 0 m²/s² 0 0 2.75 3
Temp Baro Wind Neerslag
  EWN Forecast EWN WRFDA DWD ICON FMI HIRLAM MET Norway GFS
 04:51     20:56    Daglengte: 16:05 Vandaag
02:00 10.2° 1019.4 hPa 1.3 m/s 0.0 mm 11.7° 1016.6 hPa 3.2 m/s 0.0 mm 10.4° 1019.4 hPa 1.7 m/s -2.0 mm 10.5° 1020.0 hPa 1.9 m/s 0.0 mm 9.6° 1019.8 hPa 0.5 m/s 0.0 mm 10.9° 1019.6 hPa 2.7 m/s
05:00 11.2° 1017.5 hPa 1.4 m/s 0.0 mm 11.1° 1015.5 hPa 1.9 m/s 0.9 mm 11.1° 1017.8 hPa 1.7 m/s 0.1 mm 12.2° 1017.7 hPa 3.0 m/s 0.0 mm 11.3° 1017.7 hPa 0.1 m/s 0.0 mm 11.3° 1017.7 hPa 3.1 m/s
08:00 12.2° 1015.0 hPa 1.6 m/s 0.9 mm 12.2° 1012.8 hPa 3.4 m/s 5.6 mm 11.9° 1016.0 hPa 2.3 m/s 0.4 mm 12.4° 1014.5 hPa 2.9 m/s 0.0 mm 12.7° 1015.3 hPa 0.7 m/s 0.0 mm 11.0° 1015.5 hPa 2.8 m/s
11:00 12.4° 1013.3 hPa 2.3 m/s 4.3 mm 14.7° 1011.2 hPa 6.6 m/s 16.0 mm 12.6° 1013.9 hPa 2.2 m/s 1.2 mm 13.5° 1012.8 hPa 3.0 m/s 0.0 mm 11.9° 1013.5 hPa 1.9 m/s 4.2 mm 11.6° 1013.4 hPa 2.8 m/s
14:00 12.8° 1012.0 hPa 2.2 m/s 5.4 mm 12.8° 1009.5 hPa 3.3 m/s 23.7 mm 13.6° 1011.7 hPa 1.9 m/s 1.7 mm 14.3° 1011.5 hPa 4.2 m/s 0.0 mm 12.5° 1012.5 hPa 2.1 m/s 3.1 mm 11.9° 1011.6 hPa 1.7 m/s
17:00 12.4° 1009.8 hPa 1.2 m/s 7.3 mm 12.5° 1008.3 hPa 7.1 m/s 36.5 mm 13.5° 1008.9 hPa 0.6 m/s 2.3 mm 13.3° 1009.6 hPa 2.7 m/s 0.0 mm 12.2° 1010.3 hPa 0.6 m/s 2.6 mm 12.1° 1010.1 hPa 2.3 m/s
20:00 11.7° 1009.9 hPa 3.9 m/s 11.3 mm 12.4° 1007.6 hPa 7.0 m/s 57.0 mm 11.7° 1009.9 hPa 2.5 m/s 6.4 mm 12.6° 1009.5 hPa 6.8 m/s 0.0 mm 11.6° 1010.3 hPa 3.9 m/s 2.1 mm 11.7° 1009.1 hPa 2.6 m/s
23:00 11.5° 1009.7 hPa 4.1 m/s 12.6 mm 11.2° 1007.6 hPa 5.3 m/s 63.2 mm 11.6° 1009.2 hPa 0.7 m/s 1.4 mm 11.9° 1009.9 hPa 6.1 m/s 0.0 mm 11.5° 1009.8 hPa 4.5 m/s 2.1 mm 11.0° 1009.2 hPa 2.3 m/s
 04:55     20:52    Daglengte: 15:57 Morgen
02:00 11.4° 1011.0 hPa 5.7 m/s 12.1 mm 11.5° 1008.3 hPa 8.6 m/s 68.7 mm 11.2° 1010.8 hPa 1.6 m/s 3.1 mm 11.9° 1011.5 hPa 6.0 m/s 0.0 mm 11.4° 1011.1 hPa 7.6 m/s 2.0 mm 11.2° 1010.4 hPa 4.4 m/s
05:00 11.2° 1012.5 hPa 5.2 m/s 13.0 mm 11.4° 1009.8 hPa 6.4 m/s 74.2 mm 11.6° 1011.9 hPa 2.5 m/s 0.9 mm 12.3° 1012.5 hPa 5.7 m/s 0.0 mm 10.9° 1012.9 hPa 6.4 m/s 1.4 mm 11.1° 1012.0 hPa 4.6 m/s
08:00 11.4° 1014.4 hPa 3.8 m/s 15.6 mm 11.8° 1011.4 hPa 5.8 m/s 78.6 mm 11.9° 1013.8 hPa 2.5 m/s 1.8 mm 12.0° 1014.2 hPa 3.5 m/s 0.0 mm 10.9° 1015.2 hPa 5.5 m/s 0.6 mm 10.8° 1013.9 hPa 4.0 m/s
11:00 11.6° 1016.7 hPa 5.2 m/s 14.1 mm 12.7° 1013.8 hPa 6.3 m/s 87.9 mm 12.2° 1016.0 hPa 4.0 m/s 1.2 mm 12.1° 1016.1 hPa 5.4 m/s 0.0 mm 10.9° 1017.5 hPa 5.7 m/s 1.2 mm 11.0° 1016.0 hPa 4.0 m/s
14:00 12.2° 1018.8 hPa 5.5 m/s 11.0 mm 12.1° 1016.0 hPa 5.6 m/s 92.5 mm 12.5° 1018.6 hPa 5.1 m/s 0.2 mm 12.2° 1018.0 hPa 5.9 m/s 0.0 mm 12.5° 1019.2 hPa 6.1 m/s 0.8 mm 10.7° 1018.1 hPa 4.7 m/s
17:00 12.5° 1019.6 hPa 2.3 m/s 0.0 mm 13.0° 1017.2 hPa 6.4 m/s 96.2 mm 12.7° 1019.3 hPa 1.9 m/s 0.0 mm 11.2° 1018.3 hPa 0.8 m/s 0.0 mm 13.0° 1020.1 hPa 3.9 m/s 0.0 mm 11.9° 1019.5 hPa 1.9 m/s
20:00 11.7° 1019.4 hPa 1.2 m/s 0.0 mm 12.0° 1017.7 hPa 2.0 m/s 97.1 mm 12.2° 1019.3 hPa 0.6 m/s 0.0 mm 11.6° 1017.0 hPa 2.1 m/s 0.0 mm 11.7° 1020.6 hPa 1.1 m/s 0.0 mm 10.7° 1019.8 hPa 0.9 m/s
23:00 10.9° 1019.4 hPa 1.2 m/s 13.6 mm 11.3° 1018.2 hPa 2.3 m/s 97.6 mm 11.8° 1019.5 hPa 1.2 m/s 0.3 mm 10.7° 1019.7 hPa 0.9 m/s 0.3 mm 11.4° 1020.2 hPa 2.5 m/s
 04:59     20:47    Daglengte: 15:48 Dinsdag 27 Aug
02:00 12.3° 1019.1 hPa 1.7 m/s 0.0 mm 12.3° 1016.3 hPa 3.4 m/s 99.5 mm 12.4° 1019.4 hPa 1.7 m/s 0.0 mm 12.1° 1019.6 hPa 0.7 m/s 0.0 mm 11.8° 1019.9 hPa 3.5 m/s
05:00 13.4° 1018.6 hPa 2.1 m/s 0.0 mm 14.2° 1015.3 hPa 5.8 m/s 99.6 mm 13.4° 1018.6 hPa 1.9 m/s 0.0 mm 13.4° 1019.1 hPa 1.3 m/s 0.0 mm 12.5° 1019.0 hPa 3.8 m/s
08:00 15.0° 1018.3 hPa 1.3 m/s 0.0 mm 15.5° 1015.5 hPa 4.3 m/s 99.6 mm 14.9° 1018.6 hPa 1.5 m/s 0.0 mm 15.0° 1018.6 hPa 0.6 m/s 0.0 mm 13.7° 1018.7 hPa 4.3 m/s
11:00 17.1° 1018.5 hPa 1.6 m/s 0.0 mm 15.1° 1016.5 hPa 3.1 m/s 100.4 mm 18.4° 1018.2 hPa 0.9 m/s 0.0 mm 17.1° 1019.1 hPa 1.6 m/s 0.0 mm 15.7° 1019.0 hPa 3.3 m/s
14:00 16.7° 1019.4 hPa 2.1 m/s 0.0 mm 18.3° 1017.0 hPa 5.2 m/s 101.1 mm 20.5° 1018.2 hPa 0.8 m/s 0.0 mm 14.5° 1020.8 hPa 2.0 m/s 0.0 mm 17.7° 1019.1 hPa 2.2 m/s
17:00 16.9° 1019.4 hPa 1.6 m/s 0.0 mm 18.0° 1016.9 hPa 4.1 m/s 101.2 mm 19.4° 1018.5 hPa 1.0 m/s 0.0 mm 15.3° 1020.6 hPa 1.4 m/s 17.1° 1018.6 hPa 1.3 m/s
20:00 16.2° 1019.6 hPa 0.8 m/s 0.0 mm 15.6° 1016.3 hPa 0.5 m/s 101.2 mm 17.1° 1019.3 hPa 0.8 m/s 0.0 mm 16.1° 1020.4 hPa 0.8 m/s 15.2° 1018.3 hPa 1.0 m/s
23:00 14.6° 1019.3 hPa 1.2 m/s 0.0 mm 14.4° 1016.0 hPa 1.8 m/s 101.2 mm 15.8° 1019.1 hPa 1.1 m/s 0.0 mm 14.4° 1020.1 hPa 1.2 m/s 14.1° 1018.1 hPa 1.5 m/s
 05:03     20:43    Daglengte: 15:40 Woensdag 28 Aug
02:00 13.7° 1018.6 hPa 1.9 m/s 0.0 mm 14.6° 1014.2 hPa 3.1 m/s 101.2 mm 14.9° 1018.2 hPa 1.9 m/s 0.0 mm 12.7° 1019.8 hPa 1.6 m/s 14.1° 1016.7 hPa 1.7 m/s
05:00 14.3° 1018.4 hPa 2.2 m/s 37.0 mm 14.4° 1018.7 hPa 2.2 m/s 13.5° 1015.3 hPa 2.4 m/s 37.0 mm
08:00 15.3° 1017.9 hPa 2.5 m/s 37.0 mm 15.2° 1018.2 hPa 2.5 m/s 16.8° 1014.0 hPa 3.0 m/s 37.0 mm
11:00 18.8° 1017.5 hPa 2.3 m/s 37.0 mm 18.8° 1017.8 hPa 2.4 m/s 19.5° 1013.6 hPa 1.7 m/s 37.0 mm
14:00 22.1° 1017.1 hPa 2.3 m/s 37.0 mm 22.3° 1017.4 hPa 2.2 m/s 20.4° 1014.0 hPa 2.8 m/s 37.0 mm
17:00 20.7° 1016.9 hPa 1.9 m/s 37.3 mm 21.1° 1017.0 hPa 1.8 m/s 16.7° 1014.7 hPa 3.4 m/s 37.3 mm
20:00 19.3° 1016.6 hPa 1.3 m/s 37.7 mm 19.8° 1016.7 hPa 1.3 m/s 13.5° 1015.6 hPa 1.5 m/s 37.7 mm
23:00 16.6° 1016.3 hPa 1.9 m/s 37.8 mm 16.9° 1016.2 hPa 2.0 m/s 12.9° 1016.9 hPa 0.8 m/s 37.8 mm
 05:06     20:38    Daglengte: 15:32 Donderdag 29 Aug
02:00 13.9° 1015.9 hPa 2.6 m/s 37.8 mm 14.0° 1015.8 hPa 2.7 m/s 12.4° 1016.4 hPa 1.4 m/s 37.8 mm
05:00 14.7° 1015.7 hPa 2.7 m/s 37.8 mm 14.8° 1015.6 hPa 2.8 m/s 13.2° 1016.3 hPa 2.0 m/s 37.8 mm
08:00 15.7° 1015.5 hPa 2.7 m/s 37.8 mm 15.6° 1015.5 hPa 2.8 m/s 16.5° 1015.1 hPa 2.0 m/s 37.8 mm
11:00 19.1° 1014.6 hPa 2.8 m/s 37.8 mm 19.1° 1014.7 hPa 2.9 m/s 20.2° 1014.0 hPa 2.2 m/s 37.8 mm
14:00 22.5° 1013.7 hPa 2.9 m/s 37.8 mm 22.5° 1013.9 hPa 3.0 m/s 22.4° 1012.0 hPa 2.4 m/s 37.8 mm
17:00 21.0° 1013.1 hPa 2.6 m/s 37.8 mm 20.8° 1013.4 hPa 2.5 m/s 22.8° 1010.2 hPa 3.2 m/s 37.8 mm
20:00 19.1° 1012.6 hPa 2.2 m/s 37.8 mm 19.1° 1012.9 hPa 2.0 m/s 19.7° 1009.3 hPa 4.0 m/s 37.8 mm
23:00 17.0° 1011.7 hPa 2.6 m/s 37.8 mm 17.0° 1012.0 hPa 2.4 m/s 17.9° 1007.8 hPa 4.3 m/s 37.8 mm
 05:10     20:34    Daglengte: 15:24 Vrijdag 30 Aug
02:00 15.0° 1010.7 hPa 3.0 m/s 37.8 mm 14.8° 1011.1 hPa 2.8 m/s 17.4° 1006.6 hPa 4.7 m/s 37.8 mm
05:00 15.4° 1010.7 hPa 2.9 m/s 37.9 mm 15.2° 1011.1 hPa 2.8 m/s 17.3° 1006.6 hPa 4.5 m/s 37.9 mm
08:00 15.6° 1010.8 hPa 2.7 m/s 42.9 mm 15.7° 1011.1 hPa 2.7 m/s 13.9° 1007.9 hPa 3.0 m/s 42.9 mm
11:00 15.0° 1010.7 hPa 2.8 m/s 45.0 mm 15.1° 1010.9 hPa 3.0 m/s 12.8° 1009.3 hPa 0.6 m/s 45.0 mm
14:00 14.5° 1010.5 hPa 3.0 m/s 45.5 mm 14.6° 1010.6 hPa 3.2 m/s 13.6° 1009.1 hPa 1.0 m/s 45.5 mm
17:00 13.9° 1010.5 hPa 2.4 m/s 45.6 mm 13.8° 1010.7 hPa 2.6 m/s 14.1° 1008.6 hPa 0.5 m/s 45.6 mm
20:00 13.1° 1010.5 hPa 1.9 m/s 45.7 mm 13.1° 1010.7 hPa 2.0 m/s 12.9° 1008.2 hPa 1.2 m/s 45.7 mm
23:00 12.5° 1010.9 hPa 2.1 m/s 48.6 mm 12.4° 1011.2 hPa 2.3 m/s 12.5° 1007.4 hPa 0.4 m/s 48.6 mm
 05:14     20:29    Daglengte: 15:15 Zaterdag 31 Aug
02:00 11.9° 1011.4 hPa 2.5 m/s 49.3 mm 11.8° 1011.8 hPa 2.6 m/s 12.4° 1007.0 hPa 1.9 m/s 49.3 mm
05:00 11.5° 1010.7 hPa 2.5 m/s 54.8 mm 11.6° 1011.0 hPa 2.7 m/s 11.4° 1007.0 hPa 1.2 m/s 54.8 mm
08:00 11.3° 1010.0 hPa 2.6 m/s 56.0 mm 11.3° 1010.2 hPa 2.7 m/s 11.5° 1007.5 hPa 1.2 m/s 56.0 mm
11:00 12.4° 1009.8 hPa 3.1 m/s 56.0 mm 12.4° 1010.0 hPa 3.2 m/s 12.6° 1007.9 hPa 1.3 m/s 56.0 mm
14:00 13.5° 1009.6 hPa 3.6 m/s 56.1 mm 13.5° 1009.8 hPa 3.8 m/s 13.5° 1007.8 hPa 0.9 m/s 56.1 mm
17:00 13.5° 1012.1 hPa 2.4 m/s 56.7 mm 13.5° 1012.6 hPa 2.5 m/s 13.0° 1007.2 hPa 0.6 m/s 56.7 mm
20:00 13.4° 1014.7 hPa 1.3 m/s 56.8 mm 13.5° 1015.4 hPa 1.3 m/s 12.2° 1006.6 hPa 0.9 m/s 56.8 mm
23:00 12.2° 1014.8 hPa 1.6 m/s 56.8 mm 12.3° 1015.6 hPa 1.6 m/s 11.6° 1005.9 hPa 0.9 m/s 56.8 mm
 05:18     20:25    Daglengte: 15:07 Zondag 01 Sep
02:00 11.1° 1014.9 hPa 2.0 m/s 56.8 mm 11.1° 1015.8 hPa 2.0 m/s 11.3° 1005.1 hPa 2.3 m/s 56.8 mm
08:00 12.1° 1013.6 hPa 2.3 m/s 56.8 mm 12.0° 1014.6 hPa 2.2 m/s 13.4° 1002.5 hPa 3.1 m/s 56.8 mm
14:00 15.1° 1012.8 hPa 3.2 m/s 56.9 mm 14.9° 1013.9 hPa 3.1 m/s 17.7° 1000.4 hPa 4.7 m/s 56.9 mm
20:00 13.9° 1012.4 hPa 1.7 m/s 61.0 mm 14.1° 1013.4 hPa 1.5 m/s 11.7° 1001.1 hPa 4.1 m/s 61.0 mm
 05:22     20:20    Daglengte: 14:58 Maandag 02 Sep
02:00 11.1° 1012.3 hPa 2.5 m/s 65.4 mm 11.3° 1012.8 hPa 2.4 m/s 9.4° 1006.3 hPa 3.6 m/s 65.4 mm
08:00 10.6° 1011.8 hPa 2.5 m/s 65.5 mm 10.7° 1012.3 hPa 2.6 m/s 9.3° 1006.8 hPa 1.3 m/s 65.5 mm
14:00 14.4° 1012.9 hPa 2.1 m/s 65.6 mm 14.7° 1013.4 hPa 2.1 m/s 11.4° 1007.7 hPa 1.9 m/s 65.6 mm
20:00 13.0° 1013.5 hPa 1.2 m/s 65.6 mm 13.4° 1014.0 hPa 1.2 m/s 9.1° 1008.2 hPa 1.5 m/s 65.6 mm
 05:25     20:16    Daglengte: 14:51 Dinsdag 03 Sep
02:00 10.3° 1013.5 hPa 1.6 m/s 65.8 mm 10.6° 1013.9 hPa 1.6 m/s 7.5° 1008.8 hPa 1.2 m/s 65.8 mm
08:00 10.6° 1013.3 hPa 1.9 m/s 67.1 mm 10.8° 1013.6 hPa 1.8 m/s 8.0° 1009.5 hPa 2.7 m/s 67.1 mm
14:00 8.8° 1011.1 hPa 3.0 m/s 69.3 mm 8.8° 1011.1 hPa 3.0 m/s 69.3 mm
20:00 10.9° 1013.2 hPa 1.1 m/s 1.8 mm
 05:29     20:12    Daglengte: 14:43 Woensdag 04 Sep
02:00 8.6° 1013.5 hPa 1.5 m/s 1.7 mm
08:00 8.9° 1013.8 hPa 1.4 m/s 1.7 mm
14:00 11.6° 1013.8 hPa 1.9 m/s 1.3 mm
20:00 9.0° 1013.7 hPa 1.1 m/s 1.3 mm
 05:33     20:07    Daglengte: 14:34 Donderdag 05 Sep
02:00 7.2° 1013.2 hPa 1.3 m/s 0.7 mm
08:00 8.4° 1012.3 hPa 1.4 m/s 0.5 mm
14:00 12.2° 1011.3 hPa 1.5 m/s 0.7 mm
20:00 9.7° 1010.9 hPa 1.0 m/s 0.8 mm
 05:36     20:03    Daglengte: 14:27 Vrijdag 06 Sep
02:00 7.9° 1011.3 hPa 1.5 m/s 1.1 mm
08:00 8.8° 1010.8 hPa 1.5 m/s 1.3 mm
14:00 12.5° 1010.7 hPa 1.3 m/s 1.4 mm
20:00 9.2° 1010.7 hPa 0.4 m/s 0.8 mm
 05:40     19:58    Daglengte: 14:18 Zaterdag 07 Sep
02:00 7.3° 1010.8 hPa 1.4 m/s 0.6 mm
08:00 8.0° 1009.9 hPa 1.9 m/s 0.3 mm
14:00 12.3° 1008.9 hPa 1.9 m/s 0.5 mm
20:00 9.1° 1008.3 hPa 0.7 m/s 1.7 mm
 05:44     19:54    Daglengte: 14:10 Zondag 08 Sep
02:00 7.0° 1008.7 hPa 1.2 m/s 2.0 mm
08:00 7.6° 1008.6 hPa 1.3 m/s 1.7 mm
14:00 11.6° 1008.6 hPa 1.7 m/s 1.0 mm
20:00 8.7° 1008.4 hPa 0.4 m/s 0.8 mm
FMI Hirlam - 7.5 km EWN WRFDA - 12 km DWD ICON - 7 km GFS - 25 km Basiskaart






























































Updatetijd (Europe/Amsterdam) Resolutie Lengte Stap
FMI Hirlam 01:00, 07:00, 13:00, 19:00 7.5 km 49h 1h
EWN WRFDA 22:00, 04:00, 10:00, 16:00 12 km 73h 1h
DWD ICON 23:45, 05:45, 11:45, 17:45 7 km 75h 1h
GFS 20:30, 02:30, 08:30, 14:30 25 km 237h 3h
30+ mm
25-30 mm
20-25 mm
15-20 mm
10-15 mm
6-10 mm
4-6 mm
2-4 mm
1-2 mm
0.5-1 mm
0.2-0.5 mm
0.1-0.2 mm
30+ mm
25-30 mm
20-25 mm
15-20 mm
10-15 mm
6-10 mm
4-6 mm
2-4 mm
1-2 mm
0.5-1 mm
0.2-0.5 mm
0.1-0.2 mm
Sneeuwval
Natte sneeuw
Hagel
Vorst
30+ mm
25-30 mm
20-25 mm
15-20 mm
10-15 mm
6-10 mm
4-6 mm
2-4 mm
1-2 mm
0.5-1 mm
0.2-0.5 mm
0.1-0.2 mm
Sneeuwval
Natte sneeuw
Hagel
Vorst
Onweer
50 mm
40 mm
30 mm
26 mm
22 mm
18 mm
14 mm
10 mm
9 mm
8 mm
7 mm
6 mm
5 mm
4.5 mm
4 mm
3.5 mm
3 mm
2.5 mm
2 mm
1.5 mm
1 mm
0.8 mm
0.6 mm
0.4 mm
0.2 mm
0.05 mm
35°
30°
25°
20°
15°
10°
-5°
-10°
-15°
-20°
-25°
-30°
-35°
120> km/h
105 km/h
90 km/h
75 km/h
60 km/h
50 km/h
40 km/h
30 km/h
20 km/h
10 km/h
0 km/h
2600 J/kg
2400 J/kg
2200 J/kg
2000 J/kg
1800 J/kg
1600 J/kg
1400 J/kg
1200 J/kg
1000 J/kg
800 J/kg
600 J/kg
400 J/kg
200 J/kg
70 dBZ
65 dBZ
60 dBZ
55 dBZ
50 dBZ
45 dBZ
40 dBZ
35 dBZ
30 dBZ
25 dBZ
20 dBZ
15 dBZ
10 dBZ
5 dBZ
-1 K
-2 K
-3 K
-4 K
-5 K
-6 K
-7 K
-8 K
-9 K
950 m²/s²
900 m²/s²
850 m²/s²
800 m²/s²
750 m²/s²
700 m²/s²
650 m²/s²
600 m²/s²
550 m²/s²
500 m²/s²
450 m²/s²
400 m²/s²
350 m²/s²
300 m²/s²
250 m²/s²
200 m²/s²
150 m²/s²
100 m²/s²
46 m/s
44 m/s
42 m/s
40 m/s
38 m/s
36 m/s
34 m/s
32 m/s
30 m/s
28 m/s
26 m/s
24 m/s
22 m/s
20 m/s
16 m/s
12 m/s
8 m/s
4 m/s
30 m/s
28 m/s
26 m/s
24 m/s
22 m/s
20 m/s
18 m/s
16 m/s
14 m/s
12 m/s
10 m/s
8 m/s
6 m/s
4 m/s
2 m/s
3.0
2.8
2.6
2.4
2.2
2.0
1.8
1.6
1.4
1.2
1.0
0.8
0.6
0.4
0.2
15
14
13
12
11
10
9
8
7
6
5
4
3
2
1
90%
80%
70%
60%
50%
40%
30%
20%
10%
42
40
38
36
34
32
30
28
26
24
22
20
18
16
14
12
90+ cm
80-90 cm
70-80 cm
60-70 cm
50-60 cm
40-50 cm
30-40 cm
20-30 cm
10-20 cm
1-10 cm
Sneeuwval
Natte sneeuw
Regen
>120 mm
115 mm
110 mm
105 mm
100 mm
95 mm
90 mm
85 mm
80 mm
75 mm
70 mm
65 mm
60 mm
55 mm
50 mm
45 mm
45 mm
40 mm
35 mm
30 mm
25 mm
20 mm
15 mm
10 mm
5 mm
0.1 mm
960 hPa
880 hPa
800 hPa
720 hPa
640 hPa
560 hPa
584 gpdm
568 gpdm
552 gpdm
536 gpdm
520 gpdm
504 gpdm